Weather History for KSFY - January, 2012

Change the Weather History Date:

Thursday, January 12, 2012

  Actual Average (KCWI) Record (KCWI)
Temperature  
Mean Temperature 26 °F -  
Max Temperature 33 °F 27 °F 57 °F (1960)
Min Temperature 18 °F 11 °F -23 °F (1974)
Degree Days  
Heating Degree Days 40    
Moisture  
Dew Point 19 °F    
Average Humidity 85    
Maximum Humidity 90    
Minimum Humidity 78    
Precipitation  
Precipitation 0.00 in - - ()
Sea Level Pressure  
Sea Level Pressure 29.58 in    
Wind  
Wind Speed 13 mph (NW)    
Max Wind Speed 17 mph    
Max Gust Speed 26 mph    
Visibility 3 miles    
Events Snow    
Averages and records for this station are not official NWS values.
T = Trace of Precipitation, MM = Missing Value Source: NWS Daily Summary

Daily Weather History Graph

Daily Weather History Graph

Search for Another Location

Airport or City:

Trip Planner

Search our weather history database for the weather conditions in past years. The results will help you decide how hot, cold, wet, or windy it might be!

Date:

Astronomy

Jan. 12, 2012 Rise Set
Actual Time 7:27 AM CST 4:50 PM CST
Civil Twilight 6:56 AM CST 5:21 PM CST
Nautical Twilight 6:21 AM CST 5:55 PM CST
Astronomical Twilight 5:48 AM CST 6:29 PM CST
Moon 9:00 PM CST (1/12) 9:06 AM CST (1/12)
Length of Visible Light 10h 24m
Length of Day
9h 22m
Waning Gibbous, 87% of the Moon is Illuminated
Jan 12
Waning Gibbous
Jan 16
Last Quarter
Jan 23
New
Jan 30
First Quarter
Feb 7
Full

Hourly Weather History & Observations

Time (CST) Temp. Windchill Dew Point Humidity Pressure Visibility Wind Dir Wind Speed Gust Speed Precip Events Conditions
12:15 AM 33.4 °F 24.3 °F 28.4 °F 82% 29.59 in 10.0 mi WNW 12.7 mph 19.6 mph N/A   Overcast
12:35 AM 32.5 °F 22.3 °F 27.7 °F 82% 29.59 in 10.0 mi NW 15.0 mph 20.7 mph N/A   Overcast
12:55 AM 32.0 °F 21.2 °F 26.4 °F 80% 29.59 in 10.0 mi WNW 16.1 mph - N/A   Overcast
1:15 AM 31.1 °F 21.4 °F 25.7 °F 80% 29.59 in 10.0 mi WNW 12.7 mph 21.9 mph N/A   Overcast
1:35 AM 30.9 °F 21.2 °F 25.3 °F 80% 29.60 in 10.0 mi NW 12.7 mph 18.4 mph N/A   Overcast
1:55 AM 30.4 °F 20.5 °F 24.8 °F 80% 29.60 in 10.0 mi WNW 12.7 mph - N/A   Overcast
2:15 AM 29.7 °F 18.6 °F 23.9 °F 79% 29.60 in 10.0 mi WNW 15.0 mph 19.6 mph N/A   Overcast
2:35 AM 29.1 °F 20.0 °F 23.4 °F 79% 29.60 in 10.0 mi NW 10.4 mph 18.4 mph N/A   Overcast
2:55 AM 28.4 °F 17.5 °F 22.8 °F 80% 29.60 in 10.0 mi NW 13.8 mph 17.3 mph N/A   Overcast
3:15 AM 27.9 °F 16.3 °F 22.1 °F 79% 29.60 in 10.0 mi NNW 15.0 mph - N/A   Overcast
3:35 AM 26.2 °F 14.7 °F 21.2 °F 81% 29.60 in 10.0 mi WNW 13.8 mph - N/A   Overcast
3:55 AM 25.3 °F 14.1 °F 21.2 °F 84% 29.60 in 3.0 mi NW 12.7 mph - N/A Snow Light Snow
4:15 AM 24.6 °F 13.2 °F 21.7 °F 89% 29.59 in 1.5 mi WNW 12.7 mph 16.1 mph N/A Snow Light Snow
4:35 AM 23.7 °F 12.6 °F 21.2 °F 90% 29.59 in 1.0 mi WNW 11.5 mph - N/A Snow Snow
4:55 AM 23.4 °F 11.1 °F 20.7 °F 89% 29.58 in 1.2 mi NW 13.8 mph - N/A Snow Snow
5:15 AM 22.8 °F 11.5 °F 19.9 °F 89% 29.59 in 1.0 mi NW 11.5 mph 17.3 mph N/A Snow Snow
5:35 AM 22.5 °F 10.5 °F 19.2 °F 87% 29.59 in 1.2 mi NW 12.7 mph 19.6 mph N/A Snow Light Snow
5:55 AM 22.5 °F 12.4 °F 19.4 °F 88% 29.59 in 1.2 mi NW 9.2 mph - N/A Snow Light Snow
6:15 AM 21.9 °F 9.8 °F 19.0 °F 89% 29.59 in 1.0 mi NW 12.7 mph 18.4 mph N/A Snow Snow
6:35 AM 21.7 °F 10.8 °F 19.2 °F 90% 29.59 in 1.0 mi NW 10.4 mph 18.4 mph N/A Snow Snow
6:55 AM 20.8 °F 6.8 °F 17.6 °F 87% 29.59 in 1.2 mi NW 16.1 mph 20.7 mph N/A Snow Snow
7:15 AM 20.1 °F 6.9 °F 16.7 °F 87% 29.59 in 1.2 mi NW 13.8 mph - N/A Snow Light Snow
7:35 AM 20.3 °F 9.8 °F 17.8 °F 90% 29.59 in 0.5 mi NW 9.2 mph - N/A Snow Snow
7:55 AM 20.1 °F 8.1 °F 16.9 °F 87% 29.59 in 0.5 mi WNW 11.5 mph 17.3 mph N/A Snow Snow
8:15 AM 19.9 °F 7.3 °F 16.5 °F 87% 29.59 in 0.8 mi NW 12.7 mph - N/A Snow Light Snow
8:35 AM 19.9 °F 9.3 °F 17.1 °F 89% 29.59 in 0.5 mi WNW 9.2 mph 21.9 mph N/A Snow Snow
8:55 AM 19.8 °F 6.5 °F 16.7 °F 88% 29.59 in 0.8 mi NW 13.8 mph - N/A Snow Light Snow
9:15 AM 19.8 °F 7.7 °F 16.7 °F 88% 29.59 in 0.8 mi NW 11.5 mph - N/A Snow Light Snow
9:35 AM 19.6 °F 6.2 °F 16.0 °F 86% 29.58 in 1.0 mi NW 13.8 mph 18.4 mph N/A Snow Light Snow
9:55 AM 19.8 °F 8.3 °F 16.3 °F 87% 29.57 in 0.5 mi NW 10.4 mph - N/A Snow Snow
10:15 AM 19.4 °F 7.9 °F 15.6 °F 85% 29.57 in 0.8 mi NW 10.4 mph - N/A Snow Snow
10:35 AM 19.2 °F 4.7 °F 15.6 °F 86% 29.56 in 0.5 mi NW 16.1 mph 23.0 mph N/A Snow Snow
10:55 AM 19.4 °F 7.9 °F 16.2 °F 87% 29.56 in 0.5 mi NW 10.4 mph - N/A Snow Snow
11:15 AM 19.4 °F 6.0 °F 15.8 °F 86% 29.55 in 0.8 mi WNW 13.8 mph 19.6 mph N/A Snow Light Snow
11:35 AM 19.8 °F 7.1 °F 16.3 °F 87% 29.54 in 0.5 mi WNW 12.7 mph 20.7 mph N/A Snow Snow
11:55 AM 19.6 °F 6.8 °F 15.8 °F 85% 29.54 in 0.5 mi WNW 12.7 mph 19.6 mph N/A Snow Snow
12:15 PM 19.9 °F 6.7 °F 15.8 °F 84% 29.53 in 1.0 mi WNW 13.8 mph - N/A Snow Light Snow
12:35 PM 19.9 °F 7.3 °F 16.0 °F 85% 29.52 in 1.2 mi NW 12.7 mph - N/A Snow Light Snow
12:55 PM 20.3 °F 7.7 °F 16.7 °F 86% 29.52 in 0.5 mi WNW 12.7 mph - N/A Snow Snow
1:15 PM 19.8 °F 7.1 °F 15.8 °F 85% 29.52 in 0.5 mi NW 12.7 mph 19.6 mph N/A Snow Snow
1:35 PM 19.9 °F 6.7 °F 16.0 °F 85% 29.52 in 0.8 mi WNW 13.8 mph 20.7 mph N/A Snow Light Snow
1:55 PM 20.1 °F 6.4 °F 16.7 °F 87% 29.53 in 0.5 mi NW 15.0 mph - N/A Snow Snow
2:15 PM 19.9 °F 5.7 °F 16.3 °F 86% 29.54 in 0.8 mi WNW 16.1 mph 20.7 mph N/A Snow Light Snow
2:35 PM 20.1 °F 6.4 °F 16.3 °F 85% 29.54 in 0.8 mi NW 15.0 mph 26.5 mph N/A Snow Light Snow
2:55 PM 20.1 °F 5.9 °F 16.3 °F 85% 29.55 in 0.5 mi NW 16.1 mph 24.2 mph N/A Snow Light Snow
3:15 PM 20.3 °F 7.2 °F 17.4 °F 89% 29.56 in 0.5 mi WNW 13.8 mph 19.6 mph N/A Snow Light Snow
3:35 PM 20.1 °F 8.1 °F 17.1 °F 88% 29.57 in 0.5 mi WNW 11.5 mph 18.4 mph N/A Snow Light Snow
4:15 PM 19.8 °F 8.3 °F 16.3 °F 87% 29.58 in 1.2 mi WNW 10.4 mph - N/A Snow Light Snow
4:35 PM 19.4 °F 7.2 °F 16.2 °F 87% 29.59 in 1.0 mi WNW 11.5 mph 19.6 mph N/A Snow Light Snow
5:15 PM 18.7 °F 5.1 °F 14.7 °F 85% 29.61 in 2.0 mi NW 13.8 mph 20.7 mph N/A Snow Light Snow
5:35 PM 18.5 °F 4.9 °F 13.6 °F 81% 29.61 in 3.0 mi WNW 13.8 mph 25.3 mph N/A Snow Light Snow
5:55 PM 18.1 °F 2.9 °F 13.1 °F 81% 29.62 in 3.0 mi NW 17.3 mph 26.5 mph N/A Snow Light Snow
6:15 PM 18.3 °F 3.1 °F 12.6 °F 78% 29.62 in 5.0 mi WNW 17.3 mph 26.5 mph N/A Snow Light Snow
6:35 PM 18.3 °F 5.9 °F 12.4 °F 78% 29.63 in 10.0 mi WNW 11.5 mph 18.4 mph N/A   Overcast
6:55 PM 17.6 °F 3.7 °F 12.7 °F 81% 29.64 in 7.0 mi WNW 13.8 mph 19.6 mph N/A Snow Light Snow
7:15 PM 16.7 °F 3.8 °F 12.9 °F 85% 29.65 in 2.5 mi WNW 11.5 mph 19.6 mph N/A Snow Light Snow
7:35 PM 16.7 °F 2.0 °F 12.9 °F 85% 29.65 in 1.8 mi WNW 15.0 mph 20.7 mph N/A Snow Light Snow
7:55 PM 16.7 °F 2.6 °F 13.1 °F 86% 29.65 in 2.0 mi WNW 13.8 mph 18.4 mph N/A Snow Light Snow
8:15 PM 16.7 °F 4.5 °F 13.1 °F 86% 29.65 in 2.5 mi WNW 10.4 mph - N/A Snow Light Snow
8:55 PM 16.3 °F 1.6 °F 12.2 °F 84% 29.66 in 4.0 mi WNW 15.0 mph 20.7 mph N/A Snow Light Snow
9:15 PM 16.3 °F 3.4 °F 12.2 °F 84% 29.66 in 3.0 mi WNW 11.5 mph - N/A Snow Light Snow
9:35 PM 16.2 °F 2.5 °F 12.2 °F 84% 29.67 in 2.5 mi WNW 12.7 mph - N/A Snow Light Snow
9:55 PM 16.2 °F 3.2 °F 11.8 °F 83% 29.67 in 2.5 mi WNW 11.5 mph 18.4 mph N/A Snow Light Snow
10:15 PM 16.3 °F 2.1 °F 11.7 °F 82% 29.68 in 4.0 mi WNW 13.8 mph - N/A Snow Light Snow
10:35 PM 15.8 °F 0.9 °F 11.3 °F 82% 29.68 in 5.0 mi WNW 15.0 mph 19.6 mph N/A Snow Light Snow
10:55 PM 15.8 °F 1.4 °F 11.8 °F 84% 29.68 in 2.0 mi WNW 13.8 mph 20.7 mph N/A Snow Light Snow
11:15 PM 15.6 °F 0.6 °F 11.7 °F 84% 29.69 in 2.5 mi WNW 15.0 mph - N/A Snow Light Snow
11:35 PM 15.6 °F 1.2 °F 11.8 °F 85% 29.70 in 1.8 mi WNW 13.8 mph - N/A Snow Light Snow
11:55 PM 15.8 °F 0.9 °F 11.5 °F 83% 29.70 in 2.5 mi WNW 15.0 mph 19.6 mph N/A Snow Light Snow